Weather in Chizhovka-2

Russia / Smolensk Oblast     54°04′44″N   33°10′55″E
temp.,
°C
wind,
m/s
gust,
m/s
humid.,
%
clouds,
%
prec.,
mm/h
press.,
hPa
HPBL,
m
14 april, wed
wed1400:00+11se269296 0.6 1018226
03:00+10sse3889100 0.7 1018319
06:00+8s239772 0.0 101855
09:00+12s368535 0.1 1018536
12:00+14s346674 0.5 10171137
15:00+15s3455100 0.4 10171414
18:00+14sse1364100 0.1 1016315
21:00+11ese1179100 0.7 101713
15 april, thu
thu1500:00+10ene2386100 0.4 101645
03:00+9ene3691100 1.3 1016195
06:00+9nne3591100 0.5 1015146
09:00+9ene3688100 0.9 1015201
12:00+11nne2479100 0.6 1015213
15:00+14ene5661100 0.9 10141315
18:00+11ene51178100 0.3 1014859
21:00+10ene388099 0.3 1014243
16 april, fri
fri1600:00+9ene5128871 0.1 1014551
03:00+9ene6128893 0.2 1014585
06:00+8ene6129478 1.3 1015466
09:00+9ene51090100 1.6 1016665
12:00+12ene697585 0.2 1016979
15:00+11e4988100 2.9 1017534
18:00+12e4874100 1.5 1016641
21:00+9ene3793100 2.0 1018140
17 april, sat
sat1700:00+8ene259596 0.3 1020125
03:00+7ene379675 0.3 1021207
06:00+8ene51195100 0.4 1021441
09:00+9ene61088100 0.5 1023619
12:00+10ene5983100 0.0 1023885
15:00+12ene7106898 0.1 10231114
18:00+12ene7126660 0.0 10241134
21:00+9ene6146734 0.0 1024677
18 april, sun
sun1800:00+7ene5146416 0.0 1025529
03:00+5ene513694 0.0 1025460
06:00+4ene513755 0.0 1026409
09:00+7e6106699 0.0 1026564
12:00+8e586860 0.0 1027678
15:00+11e576565 0.0 10261030
18:00+7e51181100 0.0 1027549
21:00+7e4128194 0.0 1028749